Tunica, MS

11:27 AM CDT on March 29, 2017 (GMT -0500)
Tunica

Weather History for KUTA - February, 2013

Change the Weather History Date:

Tuesday, February 12, 2013

  Actual Average (KAWM) Record (KAWM)
Temperature  
Mean Temperature 44 °F -  
Max Temperature 50 °F 50 °F 70 °F (1984)
Min Temperature 39 °F 31 °F -1 °F (1988)
Degree Days  
Heating Degree Days 20    
Moisture  
Dew Point 38 °F    
Average Humidity 75    
Maximum Humidity 93    
Minimum Humidity 58    
Precipitation  
Precipitation 0.00 in - - ()
Sea Level Pressure  
Sea Level Pressure 30.00 in    
Wind  
Wind Speed 5 mph (ENE)    
Max Wind Speed 14 mph    
Max Gust Speed 20 mph    
Visibility 10 miles    
Events Rain    
Averages and records for this station are not official NWS values.
T = Trace of Precipitation, MM = Missing Value Source: NWS Daily Summary

Daily Weather History Graph

Daily Weather History Graph

Search for Another Location

Airport or City:

Trip Planner

Search our weather history database for the weather conditions in past years. The results will help you decide how hot, cold, wet, or windy it might be!

Date:

Astronomy

Feb. 12, 2013 Rise Set
Actual Time 6:49 AM CST 5:41 PM CST
Civil Twilight 6:23 AM CST 6:07 PM CST
Nautical Twilight 5:54 AM CST 6:37 PM CST
Astronomical Twilight 5:24 AM CST 7:06 PM CST
Moon 7:55 AM CST (2/12) 8:32 PM CST (2/12)
Length of Visible Light 11h 44m
Length of Day
10h 52m
Waxing Crescent, 7% of the Moon is Illuminated
Feb 12
Waxing Crescent
Feb 17
First Quarter
Feb 25
Full
Mar 4
Last Quarter
Mar 11
New

Hourly Weather History & Observations

Time (CST) Temp. Windchill Dew Point Humidity Pressure Visibility Wind Dir Wind Speed Gust Speed Precip Events Conditions
12:15 AM 46.4 °F 45.2 °F 42.8 °F 87% 30.15 in 10.0 mi East 3.5 mph - N/A   Clear
12:35 AM 46.4 °F - 42.8 °F 87% 30.17 in 10.0 mi Calm Calm - N/A   Clear
12:55 AM 46.4 °F - 42.8 °F 87% 30.15 in 10.0 mi Calm Calm - N/A   Clear
1:15 AM 46.4 °F - 42.8 °F 87% 30.17 in 10.0 mi Calm Calm - N/A   Clear
1:35 AM 46.4 °F - 42.8 °F 87% 30.18 in 10.0 mi Calm Calm - N/A   Clear
1:55 AM 46.4 °F - 42.8 °F 87% 30.17 in 10.0 mi Calm Calm - N/A   Clear
2:15 AM 44.6 °F 41.4 °F 42.8 °F 93% 30.13 in 10.0 mi ENE 5.8 mph - N/A   Clear
2:35 AM 44.6 °F - 42.8 °F 93% 30.17 in 10.0 mi Calm Calm - N/A   Clear
2:55 AM 44.6 °F - 41.0 °F 87% 30.17 in 10.0 mi Calm Calm - N/A   Clear
3:15 AM 42.8 °F - 41.0 °F 93% 30.17 in 10.0 mi Calm Calm - N/A   Clear
3:35 AM 42.8 °F 41.1 °F 41.0 °F 93% 30.14 in 10.0 mi NE 3.5 mph - N/A   Clear
3:55 AM 44.6 °F 42.2 °F 42.8 °F 93% 30.14 in 10.0 mi North 4.6 mph - N/A   Clear
4:15 AM 44.6 °F 43.1 °F 41.0 °F 87% 30.13 in 10.0 mi ENE 3.5 mph - N/A   Clear
4:35 AM 44.6 °F 41.4 °F 41.0 °F 87% 30.11 in 10.0 mi ENE 5.8 mph - N/A   Clear
4:55 AM 42.8 °F 39.3 °F 39.2 °F 87% 30.11 in 10.0 mi ENE 5.8 mph - N/A   Clear
5:15 AM 42.8 °F 38.6 °F 37.4 °F 81% 30.09 in 10.0 mi ENE 6.9 mph - N/A   Clear
5:35 AM 42.8 °F 37.5 °F 37.4 °F 81% 30.07 in 10.0 mi ENE 9.2 mph - N/A   Clear
5:55 AM 42.8 °F 38.0 °F 37.4 °F 81% 30.06 in 10.0 mi ENE 8.1 mph - N/A   Clear
6:15 AM 42.8 °F 39.3 °F 35.6 °F 76% 30.07 in 10.0 mi East 5.8 mph - N/A   Clear
6:35 AM 41.0 °F - 35.6 °F 81% 30.11 in 10.0 mi Calm Calm - N/A   Clear
6:55 AM 39.2 °F - 35.6 °F 87% 30.12 in 10.0 mi Calm Calm - N/A   Clear
7:15 AM 39.2 °F 37.0 °F 35.6 °F 87% 30.10 in 10.0 mi NNE 3.5 mph - N/A   Clear
7:35 AM 41.0 °F 36.4 °F 37.4 °F 87% 30.07 in 10.0 mi NE 6.9 mph - N/A   Clear
7:55 AM 42.8 °F 41.1 °F 37.4 °F 81% 30.08 in 10.0 mi NE 3.5 mph - N/A   Clear
8:15 AM 44.6 °F 40.2 °F 37.4 °F 76% 30.08 in 10.0 mi North 8.1 mph - N/A   Clear
8:35 AM 44.6 °F 40.2 °F 37.4 °F 76% 30.05 in 10.0 mi NE 8.1 mph - N/A   Clear
8:55 AM 46.4 °F 42.4 °F 37.4 °F 71% 30.06 in 10.0 mi ENE 8.1 mph - N/A   Clear
9:15 AM 46.4 °F 42.4 °F 37.4 °F 71% 30.06 in 10.0 mi NE 8.1 mph - N/A   Scattered Clouds
9:35 AM 46.4 °F 44.3 °F 37.4 °F 71% 30.08 in 10.0 mi NE 4.6 mph - N/A   Scattered Clouds
9:55 AM 46.4 °F 45.2 °F 39.2 °F 76% 30.09 in 10.0 mi NE 3.5 mph - N/A   Clear
10:15 AM 46.4 °F 42.9 °F 39.2 °F 76% 30.06 in 10.0 mi ENE 6.9 mph - N/A   Scattered Clouds
10:35 AM 48.2 °F - 37.4 °F 66% 30.08 in 10.0 mi East 5.8 mph - N/A   Mostly Cloudy
10:55 AM 50.0 °F - 35.6 °F 58% 30.04 in 10.0 mi NE 8.1 mph - N/A   Mostly Cloudy
11:15 AM 48.2 °F - 35.6 °F 62% 30.10 in 10.0 mi Calm Calm - N/A   Scattered Clouds
11:35 AM 50.0 °F - 37.4 °F 62% 30.09 in 10.0 mi NE 4.6 mph - N/A Rain Light Rain
11:55 AM 50.0 °F - 37.4 °F 62% 30.07 in 10.0 mi NNE 8.1 mph - N/A   Light Drizzle
12:15 PM 50.0 °F - 37.4 °F 62% 30.02 in 10.0 mi NE 9.2 mph - N/A Rain Light Rain
12:35 PM 50.0 °F - 35.6 °F 58% 30.04 in 10.0 mi NE 6.9 mph - N/A   Scattered Clouds
12:55 PM 50.0 °F - 35.6 °F 58% 30.03 in 10.0 mi NE 10.4 mph - N/A   Scattered Clouds
1:15 PM 50.0 °F - 37.4 °F 62% 30.02 in 10.0 mi ENE 6.9 mph - N/A Rain Light Rain
1:35 PM 50.0 °F - 35.6 °F 58% 30.00 in 10.0 mi ENE 9.2 mph - N/A   Scattered Clouds
1:55 PM 50.0 °F - 35.6 °F 58% 29.96 in 10.0 mi ENE 11.5 mph - N/A   Scattered Clouds
2:15 PM 50.0 °F - 37.4 °F 62% 29.94 in 10.0 mi ENE 11.5 mph - N/A   Scattered Clouds
2:35 PM 50.0 °F - 35.6 °F 58% 29.94 in 10.0 mi NE 9.2 mph - N/A   Mostly Cloudy
2:55 PM 50.0 °F - 37.4 °F 62% 29.91 in 10.0 mi NE 12.7 mph - N/A   Light Drizzle
3:15 PM 50.0 °F - 35.6 °F 58% 29.92 in 10.0 mi ENE 10.4 mph - N/A   Overcast
3:35 PM 50.0 °F - 37.4 °F 62% 29.92 in 10.0 mi ENE 6.9 mph - N/A Rain Light Rain
3:55 PM 50.0 °F - 37.4 °F 62% 29.88 in 10.0 mi East 10.4 mph - N/A Rain Light Rain
4:15 PM 50.0 °F - 35.6 °F 58% 29.89 in 10.0 mi East 13.8 mph 19.6 mph N/A   Scattered Clouds
4:35 PM 50.0 °F - 35.6 °F 58% 29.90 in 10.0 mi ENE 10.4 mph - N/A   Mostly Cloudy
4:55 PM 48.2 °F - 35.6 °F 62% 29.90 in 10.0 mi ENE 9.2 mph - N/A   Overcast
5:15 PM 48.2 °F - 37.4 °F 66% 29.91 in 10.0 mi ENE 6.9 mph - N/A   Overcast
5:35 PM 46.4 °F 42.9 °F 37.4 °F 71% 29.90 in 10.0 mi NE 6.9 mph - N/A   Overcast
5:55 PM 46.4 °F 42.9 °F 37.4 °F 71% 29.90 in 10.0 mi NNE 6.9 mph - N/A   Overcast
6:15 PM 46.4 °F 41.9 °F 35.6 °F 66% 29.90 in 10.0 mi ENE 9.2 mph 17.3 mph N/A   Overcast
6:35 PM 46.4 °F 42.9 °F 35.6 °F 66% 29.90 in 10.0 mi ENE 6.9 mph 10.4 mph N/A   Overcast
6:55 PM 46.4 °F 41.9 °F 37.4 °F 71% 29.88 in 10.0 mi NE 9.2 mph - N/A   Overcast
7:15 PM 46.4 °F 41.9 °F 37.4 °F 71% 29.87 in 10.0 mi ENE 9.2 mph - N/A   Overcast
7:35 PM 46.4 °F 43.5 °F 37.4 °F 71% 29.86 in 10.0 mi NE 5.8 mph - N/A   Overcast
7:55 PM 46.4 °F 42.9 °F 39.2 °F 76% 29.86 in 10.0 mi ENE 6.9 mph - N/A   Overcast
8:15 PM 46.4 °F 41.9 °F 37.4 °F 71% 29.84 in 10.0 mi East 9.2 mph - N/A   Overcast
8:35 PM 46.4 °F 42.4 °F 37.4 °F 71% 29.83 in 10.0 mi East 8.1 mph - N/A   Overcast
8:55 PM 46.4 °F 41.1 °F 37.4 °F 71% 29.82 in 10.0 mi East 11.5 mph - N/A   Overcast
9:15 PM 46.4 °F 44.3 °F 37.4 °F 71% 29.84 in 10.0 mi ENE 4.6 mph - N/A   Overcast
9:35 PM 46.4 °F - 39.2 °F 76% 29.84 in 10.0 mi Calm Calm - N/A   Overcast
9:55 PM 46.4 °F 45.2 °F 37.4 °F 71% 29.85 in 10.0 mi ESE 3.5 mph - N/A   Overcast
10:15 PM 44.6 °F 39.7 °F 39.2 °F 81% 29.85 in 4.0 mi East 9.2 mph - N/A   Light Drizzle
10:35 PM 44.6 °F 42.2 °F 41.0 °F 87% 29.84 in 7.0 mi East 4.6 mph - N/A   Overcast
10:55 PM 44.6 °F 43.1 °F 41.0 °F 87% 29.83 in 5.0 mi ENE 3.5 mph - N/A   Overcast
11:15 PM 42.8 °F - 41.0 °F 93% 29.84 in 3.0 mi Calm Calm - N/A   Overcast
11:35 PM 42.8 °F - 41.0 °F 93% 29.84 in 2.0 mi Calm Calm - N/A   Drizzle
11:55 PM 42.8 °F 41.1 °F 41.0 °F 93% 29.83 in 2.5 mi NW 3.5 mph - N/A   Light Drizzle